• In Italy
  • List of Countries
  • For 7 days
  • Water Temperature
  • Satellite Maps
  • Weather Map
  • Weather Widgets
  • user-avatar
    Login

    Hourly Weather Jerusalem

    Today, 21 July, Saturday

    Time Temperature Precipitation Wind Pressure Humidity
    00:00 +23°C° 0 mm 2 mps 691 mmHg 64%
    01:00 +23°C° 0 mm 2 mps 690 mmHg 66%
    02:00 +23°C° 0 mm 2 mps 690 mmHg 67%
    03:00 +21°C° 0 mm 2 mps 690 mmHg 69%
    04:00 +21°C° 0 mm 2 mps 691 mmHg 71%
    05:00 +21°C° 0 mm 2 mps 691 mmHg 73%
    06:00 +23°C° 0 mm 2 mps 691 mmHg 68%
    07:00 +24°C° 0 mm 3 mps 691 mmHg 63%
    08:00 +25°C° 0 mm 3 mps 691 mmHg 58%
    09:00 +26°C° 0 mm 3 mps 691 mmHg 52%
    10:00 +27°C° 0 mm 3 mps 692 mmHg 47%
    11:00 +28°C° 0 mm 4 mps 692 mmHg 41%
    12:00 +29°C° 0 mm 4 mps 692 mmHg 40%
    13:00 +29°C° 0 mm 5 mps 692 mmHg 39%
    14:00 +30°C° 0 mm 5 mps 691 mmHg 37%
    15:00 +29°C° 0 mm 5 mps 691 mmHg 40%
    16:00 +28°C° 0 mm 5 mps 691 mmHg 43%
    17:00 +27°C° 0 mm 5 mps 691 mmHg 46%
    18:00 +26°C° 0 mm 4 mps 691 mmHg 51%
    19:00 +25°C° 0 mm 4 mps 691 mmHg 56%
    20:00 +24°C° 0 mm 3 mps 691 mmHg 61%
    21:00 +24°C° 0 mm 2 mps 691 mmHg 63%
    22:00 +24°C° 0 mm 2 mps 691 mmHg 64%
    23:00 +23°C° 0 mm 1 mps 691 mmHg 66%

    Tomorrow, 22 July, Sunday

    Time Temperature Precipitation Wind Pressure Humidity
    00:00 +23°C° 0 mm 2 mps 690 mmHg 67%
    01:00 +23°C° 0 mm 2 mps 690 mmHg 69%
    02:00 +21°C° 0 mm 2 mps 690 mmHg 71%
    03:00 +21°C° 0 mm 2 mps 690 mmHg 72%
    04:00 +21°C° 0 mm 2 mps 690 mmHg 73%
    05:00 +21°C° 0 mm 2 mps 690 mmHg 75%
    06:00 +23°C° 0 mm 2 mps 690 mmHg 70%
    07:00 +24°C° 0 mm 2 mps 690 mmHg 65%
    08:00 +25°C° 0 mm 3 mps 691 mmHg 60%
    09:00 +26°C° 0 mm 3 mps 691 mmHg 55%
    10:00 +27°C° 0 mm 3 mps 691 mmHg 50%
    11:00 +29°C° 0 mm 4 mps 691 mmHg 45%
    12:00 +29°C° 0 mm 4 mps 691 mmHg 44%
    13:00 +30°C° 0 mm 5 mps 690 mmHg 43%
    14:00 +32°C° 0 mm 5 mps 690 mmHg 42%
    15:00 +30°C° 0 mm 5 mps 690 mmHg 45%
    16:00 +29°C° 0 mm 5 mps 690 mmHg 48%
    17:00 +29°C° 0 mm 5 mps 689 mmHg 51%
    18:00 +28°C° 0 mm 4 mps 690 mmHg 56%
    19:00 +27°C° 0 mm 3 mps 690 mmHg 61%
    20:00 +26°C° 0 mm 2 mps 690 mmHg 65%
    21:00 +26°C° 0 mm 2 mps 690 mmHg 66%
    22:00 +25°C° 0 mm 2 mps 690 mmHg 67%
    23:00 +25°C° 0 mm 2 mps 689 mmHg 68%

    Day after tomorrow, 23 July, Monday

    Time Temperature Precipitation Wind Pressure Humidity
    00:00 +25°C° 0 mm 2 mps 689 mmHg 69%
    01:00 +24°C° 0 mm 2 mps 689 mmHg 70%
    02:00 +24°C° 0 mm 2 mps 689 mmHg 72%
    03:00 +24°C° 0 mm 2 mps 689 mmHg 74%
    04:00 +24°C° 0 mm 2 mps 689 mmHg 76%
    05:00 +23°C° 0 mm 2 mps 689 mmHg 78%
    06:00 +24°C° 0 mm 2 mps 689 mmHg 73%
    07:00 +25°C° 0 mm 3 mps 689 mmHg 68%
    08:00 +26°C° 0 mm 3 mps 690 mmHg 63%
    09:00 +28°C° 0 mm 3 mps 690 mmHg 57%
    10:00 +29°C° 0 mm 4 mps 690 mmHg 51%
    11:00 +32°C° 0 mm 4 mps 690 mmHg 45%
    12:00 +32°C° 0 mm 4 mps 690 mmHg 43%
    13:00 +33°C° 0 mm 5 mps 689 mmHg 41%
    14:00 +33°C° 0 mm 5 mps 689 mmHg 39%
    15:00 +33°C° 0 mm 5 mps 689 mmHg 39%
    16:00 +32°C° 0 mm 4 mps 689 mmHg 39%
    17:00 +30°C° 0 mm 4 mps 688 mmHg 40%
    18:00 +30°C° 0 mm 3 mps 689 mmHg 43%
    19:00 +29°C° 0 mm 2 mps 689 mmHg 46%
    20:00 +28°C° 0 mm 1 mps 689 mmHg 49%
    21:00 +27°C° 0 mm 1 mps 689 mmHg 50%
    22:00 +27°C° 0 mm 1 mps 689 mmHg 51%
    23:00 +26°C° 0 mm 1 mps 689 mmHg 51%

    24 July, Tuesday

    Time Temperature Precipitation Wind Pressure Humidity
    00:00 +26°C° 0 mm 1 mps 689 mmHg 52%
    01:00 +25°C° 0 mm 1 mps 688 mmHg 53%
    02:00 +25°C° 0 mm 1 mps 688 mmHg 54%
    03:00 +24°C° 0 mm 1 mps 688 mmHg 56%
    04:00 +24°C° 0 mm 1 mps 688 mmHg 57%
    05:00 +24°C° 0 mm 2 mps 688 mmHg 59%
    06:00 +25°C° 0 mm 2 mps 689 mmHg 56%
    07:00 +26°C° 0 mm 2 mps 689 mmHg 54%
    08:00 +27°C° 0 mm 2 mps 690 mmHg 51%
    09:00 +29°C° 0 mm 2 mps 690 mmHg 45%
    10:00 +31°C° 0 mm 3 mps 690 mmHg 39%
    11:00 +33°C° 0 mm 3 mps 690 mmHg 33%
    12:00 +34°C° 0 mm 4 mps 690 mmHg 32%
    13:00 +34°C° 0 mm 4 mps 690 mmHg 31%
    14:00 +35°C° 0 mm 4 mps 690 mmHg 30%
    15:00 +34°C° 0 mm 5 mps 690 mmHg 31%
    16:00 +33°C° 0 mm 5 mps 690 mmHg 33%
    17:00 +32°C° 0 mm 5 mps 690 mmHg 35%
    18:00 +30°C° 0 mm 4 mps 690 mmHg 39%
    19:00 +29°C° 0 mm 3 mps 690 mmHg 44%
    20:00 +28°C° 0 mm 2 mps 691 mmHg 48%
    21:00 +27°C° 0 mm 1 mps 691 mmHg 50%
    22:00 +27°C° 0 mm 1 mps 691 mmHg 51%
    23:00 +26°C° 0 mm 1 mps 690 mmHg 53%

    25 July, Wednesday

    Time Temperature Precipitation Wind Pressure Humidity
    00:00 +26°C° 0 mm 1 mps 690 mmHg 54%
    01:00 +26°C° 0 mm 1 mps 690 mmHg 55%
    02:00 +25°C° 0 mm 1 mps 690 mmHg 56%
    03:00 +25°C° 0 mm 1 mps 690 mmHg 56%
    04:00 +24°C° 0 mm 1 mps 690 mmHg 56%
    05:00 +24°C° 0 mm 1 mps 690 mmHg 56%
    06:00 +26°C° 0 mm 1 mps 690 mmHg 49%
    07:00 +28°C° 0 mm 1 mps 691 mmHg 41%
    08:00 +30°C° 0 mm 1 mps 691 mmHg 34%
    09:00 +31°C° 0 mm 1 mps 692 mmHg 30%
    10:00 +34°C° 0 mm 2 mps 692 mmHg 26%
    11:00 +35°C° 0 mm 2 mps 692 mmHg 22%
    12:00 +36°C° 0 mm 3 mps 692 mmHg 22%
    13:00 +36°C° 0 mm 3 mps 691 mmHg 22%
    14:00 +37°C° 0 mm 4 mps 691 mmHg 22%
    15:00 +36°C° 0 mm 4 mps 691 mmHg 24%
    16:00 +36°C° 0 mm 4 mps 691 mmHg 25%
    17:00 +35°C° 0 mm 4 mps 691 mmHg 26%
    18:00 +34°C° 0 mm 4 mps 691 mmHg 28%
    19:00 +33°C° 0 mm 3 mps 691 mmHg 30%
    20:00 +31°C° 0 mm 2 mps 691 mmHg 32%
    21:00 +30°C° 0 mm 2 mps 691 mmHg 31%
    22:00 +30°C° 0 mm 1 mps 691 mmHg 30%
    23:00 +30°C° 0 mm 1 mps 691 mmHg 29%

    26 July, Thursday

    Time Temperature Precipitation Wind Pressure Humidity
    00:00 +29°C° 0 mm 1 mps 691 mmHg 29%
    01:00 +29°C° 0 mm 1 mps 691 mmHg 28%
    02:00 +28°C° 0 mm 1 mps 690 mmHg 28%
    03:00 +28°C° 0 mm 1 mps 690 mmHg 29%
    04:00 +27°C° 0 mm 1 mps 690 mmHg 31%
    05:00 +26°C° 0 mm 1 mps 690 mmHg 32%
    06:00 +28°C° 0 mm 1 mps 691 mmHg 30%
    07:00 +30°C° 0 mm 1 mps 691 mmHg 27%
    08:00 +31°C° 0 mm 1 mps 692 mmHg 25%
    09:00 +33°C° 0 mm 1 mps 692 mmHg 23%
    10:00 +35°C° 0 mm 2 mps 692 mmHg 21%
    11:00 +36°C° 0 mm 2 mps 692 mmHg 19%
    12:00 +37°C° 0 mm 3 mps 692 mmHg 19%
    13:00 +37°C° 0 mm 3 mps 692 mmHg 20%
    14:00 +37°C° 0 mm 4 mps 692 mmHg 20%
    15:00 +37°C° 0 mm 4 mps 692 mmHg 22%
    16:00 +36°C° 0 mm 4 mps 692 mmHg 23%
    17:00 +35°C° 0 mm 4 mps 691 mmHg 25%
    18:00 +34°C° 0 mm 4 mps 692 mmHg 29%
    19:00 +33°C° 0 mm 3 mps 692 mmHg 32%
    20:00 +30°C° 0 mm 3 mps 692 mmHg 36%
    21:00 +30°C° 0 mm 2 mps 692 mmHg 38%
    22:00 +29°C° 0 mm 2 mps 691 mmHg 40%
    23:00 +28°C° 0 mm 1 mps 691 mmHg 42%
    Show more